Year,Month,Day,Hour,Minute,Value (Times are PST for windgust in km/hr)
2016,05,09,00,00,4.80
2016,05,09,00,01,4.80
2016,05,09,00,02,6.40
2016,05,09,00,03,4.80
2016,05,09,00,04,8.10
2016,05,09,00,05,6.40
2016,05,09,00,06,6.40
2016,05,09,00,07,9.60
2016,05,09,00,08,6.40
2016,05,09,00,09,4.80
2016,05,09,00,10,4.80
2016,05,09,00,11,4.80
2016,05,09,00,12,6.40
2016,05,09,00,13,4.80
2016,05,09,00,14,4.80
2016,05,09,00,15,4.80
2016,05,09,00,16,3.20
2016,05,09,00,17,1.60
2016,05,09,00,18,4.80
2016,05,09,00,19,1.60
2016,05,09,00,20,3.20
2016,05,09,00,21,4.80
2016,05,09,00,22,3.20
2016,05,09,00,23,4.80
2016,05,09,00,24,6.40
2016,05,09,00,25,4.80
2016,05,09,00,26,3.20
2016,05,09,00,27,4.80
2016,05,09,00,28,4.80
2016,05,09,00,29,4.80
2016,05,09,00,30,3.20
2016,05,09,00,31,4.80
2016,05,09,00,32,8.10
2016,05,09,00,33,4.80
2016,05,09,00,34,3.20
2016,05,09,00,35,4.80
2016,05,09,00,36,4.80
2016,05,09,00,37,3.20
2016,05,09,00,38,3.20
2016,05,09,00,39,6.40
2016,05,09,00,40,6.40
2016,05,09,00,41,4.80
2016,05,09,00,42,3.20
2016,05,09,00,43,3.20
2016,05,09,00,44,4.80
2016,05,09,00,45,4.80
2016,05,09,00,46,6.40
2016,05,09,00,47,4.80
2016,05,09,00,48,4.80
2016,05,09,00,49,6.40
2016,05,09,00,50,6.40
2016,05,09,00,51,4.80
2016,05,09,00,52,6.40
2016,05,09,00,53,4.80
2016,05,09,00,54,6.40
2016,05,09,00,55,6.40
2016,05,09,00,56,4.80
2016,05,09,00,57,4.80
2016,05,09,00,58,3.20
2016,05,09,00,59,4.80
2016,05,09,01,00,3.20
2016,05,09,01,01,4.80
2016,05,09,01,02,1.60
2016,05,09,01,03,3.20
2016,05,09,01,04,1.60
2016,05,09,01,05,3.20
2016,05,09,01,06,3.20
2016,05,09,01,07,4.80
2016,05,09,01,08,4.80
2016,05,09,01,09,3.20
2016,05,09,01,10,4.80
2016,05,09,01,11,3.20
2016,05,09,01,12,3.20
2016,05,09,01,13,3.20
2016,05,09,01,14,3.20
2016,05,09,01,15,3.20
2016,05,09,01,16,4.80
2016,05,09,01,17,4.80
2016,05,09,01,18,4.80
2016,05,09,01,19,4.80
2016,05,09,01,20,3.20
2016,05,09,01,21,4.80
2016,05,09,01,22,4.80
2016,05,09,01,23,4.80
2016,05,09,01,24,4.80
2016,05,09,01,25,4.80
2016,05,09,01,26,4.80
2016,05,09,01,27,6.40
2016,05,09,01,28,4.80
2016,05,09,01,29,6.40
2016,05,09,01,30,4.80
2016,05,09,01,31,4.80
2016,05,09,01,32,3.20
2016,05,09,01,33,4.80
2016,05,09,01,34,1.60
2016,05,09,01,35,4.80
2016,05,09,01,36,6.40
2016,05,09,01,37,3.20
2016,05,09,01,38,3.20
2016,05,09,01,39,3.20
2016,05,09,01,40,3.20
2016,05,09,01,41,4.80
2016,05,09,01,42,3.20
2016,05,09,01,43,1.60
2016,05,09,01,44,3.20
2016,05,09,01,45,3.20
2016,05,09,01,46,4.80
2016,05,09,01,47,4.80
2016,05,09,01,48,6.40
2016,05,09,01,49,3.20
2016,05,09,01,50,3.20
2016,05,09,01,51,3.20
2016,05,09,01,52,6.40
2016,05,09,01,53,4.80
2016,05,09,01,54,4.80
2016,05,09,01,55,4.80
2016,05,09,01,56,4.80
2016,05,09,01,57,6.40
2016,05,09,01,58,4.80
2016,05,09,01,59,3.20
2016,05,09,02,00,4.80
2016,05,09,02,01,4.80
2016,05,09,02,02,4.80
2016,05,09,02,03,3.20
2016,05,09,02,04,4.80
2016,05,09,02,05,6.40
2016,05,09,02,06,6.40
2016,05,09,02,07,4.80
2016,05,09,02,08,4.80
2016,05,09,02,09,4.80
2016,05,09,02,10,4.80
2016,05,09,02,11,4.80
2016,05,09,02,12,4.80
2016,05,09,02,13,6.40
2016,05,09,02,14,4.80
2016,05,09,02,15,4.80
2016,05,09,02,16,3.20
2016,05,09,02,17,4.80
2016,05,09,02,18,4.80
2016,05,09,02,19,4.80
2016,05,09,02,20,4.80
2016,05,09,02,21,4.80
2016,05,09,02,22,3.20
2016,05,09,02,23,4.80
2016,05,09,02,24,4.80
2016,05,09,02,25,3.20
2016,05,09,02,26,4.80
2016,05,09,02,27,4.80
2016,05,09,02,28,3.20
2016,05,09,02,29,4.80
2016,05,09,02,30,3.20
2016,05,09,02,31,3.20
2016,05,09,02,32,4.80
2016,05,09,02,33,6.40
2016,05,09,02,34,6.40
2016,05,09,02,35,3.20
2016,05,09,02,36,4.80
2016,05,09,02,37,3.20
2016,05,09,02,38,4.80
2016,05,09,02,39,4.80
2016,05,09,02,40,4.80
2016,05,09,02,41,4.80
2016,05,09,02,42,4.80
2016,05,09,02,43,4.80
2016,05,09,02,44,3.20
2016,05,09,02,45,3.20
2016,05,09,02,46,1.60
2016,05,09,02,47,6.40
2016,05,09,02,48,4.80
2016,05,09,02,49,6.40
2016,05,09,02,50,3.20
2016,05,09,02,51,3.20
2016,05,09,02,52,6.40
2016,05,09,02,53,4.80
2016,05,09,02,54,3.20
2016,05,09,02,55,4.80
2016,05,09,02,56,3.20
2016,05,09,02,57,4.80
2016,05,09,02,58,6.40
2016,05,09,02,59,4.80
2016,05,09,03,00,3.20
2016,05,09,03,01,4.80
2016,05,09,03,02,4.80
2016,05,09,03,03,4.80
2016,05,09,03,04,3.20
2016,05,09,03,05,3.20
2016,05,09,03,06,3.20
2016,05,09,03,07,3.20
2016,05,09,03,08,4.80
2016,05,09,03,09,3.20
2016,05,09,03,10,3.20
2016,05,09,03,11,3.20
2016,05,09,03,12,3.20
2016,05,09,03,13,3.20
2016,05,09,03,14,4.80
2016,05,09,03,15,4.80
2016,05,09,03,16,3.20
2016,05,09,03,17,3.20
2016,05,09,03,18,3.20
2016,05,09,03,19,1.60
2016,05,09,03,26,1.60
2016,05,09,03,27,1.60
2016,05,09,03,28,1.60
2016,05,09,03,29,1.60
2016,05,09,03,30,1.60
2016,05,09,03,44,3.20
2016,05,09,03,45,4.80
2016,05,09,03,46,4.80
2016,05,09,03,47,1.60
2016,05,09,03,56,1.60
2016,05,09,04,17,3.20
2016,05,09,04,18,1.60
2016,05,09,04,24,1.60
2016,05,09,04,25,3.20
2016,05,09,04,26,1.60
2016,05,09,04,28,1.60
2016,05,09,04,29,1.60
2016,05,09,04,38,3.20
2016,05,09,04,39,1.60
2016,05,09,05,12,1.60
2016,05,09,05,16,1.60
2016,05,09,05,17,1.60
2016,05,09,05,18,1.60
2016,05,09,05,19,1.60
2016,05,09,05,20,1.60
2016,05,09,05,35,1.60
2016,05,09,05,36,3.20
2016,05,09,05,37,1.60
2016,05,09,05,44,1.60
2016,05,09,05,46,1.60
2016,05,09,05,59,1.60
2016,05,09,06,00,1.60
2016,05,09,06,16,1.60
2016,05,09,06,17,1.60
2016,05,09,06,31,1.60
2016,05,09,06,32,1.60
2016,05,09,06,33,1.60
2016,05,09,06,48,1.60
2016,05,09,06,49,3.20
2016,05,09,06,50,3.20
2016,05,09,06,51,4.80
2016,05,09,06,52,4.80
2016,05,09,06,53,3.20
2016,05,09,06,54,4.80
2016,05,09,06,55,4.80
2016,05,09,06,56,4.80
2016,05,09,06,57,3.20
2016,05,09,06,58,3.20
2016,05,09,06,59,3.20
2016,05,09,07,00,1.60
2016,05,09,07,01,1.60
2016,05,09,07,02,1.60
2016,05,09,07,03,1.60
2016,05,09,07,09,1.60
2016,05,09,07,12,1.60
2016,05,09,07,13,1.60
2016,05,09,07,14,1.60
2016,05,09,07,15,3.20
2016,05,09,07,16,3.20
2016,05,09,07,17,3.20
2016,05,09,07,18,1.60
2016,05,09,07,21,3.20
2016,05,09,07,22,3.20
2016,05,09,07,23,1.60
2016,05,09,07,24,1.60
2016,05,09,07,34,1.60
2016,05,09,07,37,1.60
2016,05,09,07,40,1.60
2016,05,09,07,41,3.20
2016,05,09,07,42,4.80
2016,05,09,07,43,4.80
2016,05,09,07,44,4.80
2016,05,09,07,45,3.20
2016,05,09,07,46,3.20
2016,05,09,07,47,1.60
2016,05,09,07,48,1.60
2016,05,09,07,57,1.60
2016,05,09,07,59,1.60
2016,05,09,08,00,1.60
2016,05,09,08,04,1.60
2016,05,09,08,06,3.20
2016,05,09,08,07,3.20
2016,05,09,08,08,4.80
2016,05,09,08,09,4.80
2016,05,09,08,10,4.80
2016,05,09,08,11,4.80
2016,05,09,08,12,3.20
2016,05,09,08,13,3.20
2016,05,09,08,14,3.20
2016,05,09,08,15,1.60
2016,05,09,08,22,1.60
2016,05,09,08,23,1.60
2016,05,09,08,24,1.60
2016,05,09,08,25,3.20
2016,05,09,08,26,3.20
2016,05,09,08,28,3.20
2016,05,09,08,29,3.20
2016,05,09,08,30,3.20
2016,05,09,08,31,3.20
2016,05,09,08,32,3.20
2016,05,09,08,33,3.20
2016,05,09,08,34,1.60
2016,05,09,08,35,1.60
2016,05,09,08,36,3.20
2016,05,09,08,37,3.20
2016,05,09,08,38,3.20
2016,05,09,08,39,3.20
2016,05,09,08,40,3.20
2016,05,09,08,41,3.20
2016,05,09,08,42,1.60
2016,05,09,08,43,3.20
2016,05,09,08,44,1.60
2016,05,09,08,45,1.60
2016,05,09,08,46,3.20
2016,05,09,08,47,1.60
2016,05,09,08,48,1.60
2016,05,09,08,49,3.20
2016,05,09,08,50,3.20
2016,05,09,08,51,1.60
2016,05,09,08,52,1.60
2016,05,09,08,54,1.60
2016,05,09,08,55,9.60
2016,05,09,08,56,9.60
2016,05,09,08,57,8.10
2016,05,09,08,58,9.60
2016,05,09,08,59,8.10
2016,05,09,09,00,8.10
2016,05,09,09,01,6.40
2016,05,09,09,02,3.20
2016,05,09,09,03,6.40
2016,05,09,09,04,3.20
2016,05,09,09,05,3.20
2016,05,09,09,06,6.40
2016,05,09,09,07,6.40
2016,05,09,09,08,6.40
2016,05,09,09,09,9.60
2016,05,09,09,10,3.20
2016,05,09,09,11,6.40
2016,05,09,09,12,3.20
2016,05,09,09,13,1.60
2016,05,09,09,14,1.60
2016,05,09,09,16,6.40
2016,05,09,09,17,1.60
2016,05,09,09,18,3.20
2016,05,09,09,20,1.60
2016,05,09,09,21,3.20
2016,05,09,09,22,6.40
2016,05,09,09,23,3.20
2016,05,09,09,24,8.10
2016,05,09,09,25,8.10
2016,05,09,09,26,6.40
2016,05,09,09,27,6.40
2016,05,09,09,28,6.40
2016,05,09,09,29,8.10
2016,05,09,09,30,6.40
2016,05,09,09,31,6.40
2016,05,09,09,32,3.20
2016,05,09,09,33,3.20
2016,05,09,09,34,8.10
2016,05,09,09,35,8.10
2016,05,09,09,36,8.10
2016,05,09,09,37,8.10
2016,05,09,09,38,6.40
2016,05,09,09,39,6.40
2016,05,09,09,40,3.20
2016,05,09,09,41,8.10
2016,05,09,09,42,8.10
2016,05,09,09,43,6.40
2016,05,09,09,44,6.40
2016,05,09,09,45,8.10
2016,05,09,09,46,6.40
2016,05,09,09,47,8.10
2016,05,09,09,48,9.60
2016,05,09,09,49,11.30
2016,05,09,09,50,9.60
2016,05,09,09,51,12.90
2016,05,09,09,52,11.30
2016,05,09,09,53,11.30
2016,05,09,09,54,9.60
2016,05,09,09,55,6.40
2016,05,09,09,56,11.30
2016,05,09,09,57,11.30
2016,05,09,09,58,11.30
2016,05,09,09,59,9.60
2016,05,09,10,00,8.10
2016,05,09,10,01,8.10
2016,05,09,10,02,9.60
2016,05,09,10,03,11.30
2016,05,09,10,04,9.60
2016,05,09,10,05,8.10
2016,05,09,10,06,9.60
2016,05,09,10,07,9.60
2016,05,09,10,08,9.60
2016,05,09,10,09,9.60
2016,05,09,10,10,11.30
2016,05,09,10,11,11.30
2016,05,09,10,12,9.60
2016,05,09,10,13,8.10
2016,05,09,10,14,11.30
2016,05,09,10,15,12.90
2016,05,09,10,16,9.60
2016,05,09,10,17,6.40
2016,05,09,10,18,3.20
2016,05,09,10,19,6.40
2016,05,09,10,20,9.60
2016,05,09,10,21,8.10
2016,05,09,10,22,9.60
2016,05,09,10,23,6.40
2016,05,09,10,24,8.10
2016,05,09,10,25,9.60
2016,05,09,10,26,9.60
2016,05,09,10,27,9.60
2016,05,09,10,28,6.40
2016,05,09,10,29,8.10
2016,05,09,10,30,9.60
2016,05,09,10,31,12.90
2016,05,09,10,32,11.30
2016,05,09,10,33,12.90
2016,05,09,10,34,11.30
2016,05,09,10,35,12.90
2016,05,09,10,36,14.50
2016,05,09,10,37,11.30
2016,05,09,10,38,9.60
2016,05,09,10,39,9.60
2016,05,09,10,40,8.10
2016,05,09,10,41,9.60
2016,05,09,10,42,14.50
2016,05,09,10,43,12.90
2016,05,09,10,44,11.30
2016,05,09,10,45,11.30
2016,05,09,10,46,12.90
2016,05,09,10,47,9.60
2016,05,09,10,48,9.60
2016,05,09,10,49,9.60
2016,05,09,10,50,11.30
2016,05,09,10,51,12.90
2016,05,09,10,52,11.30
2016,05,09,10,53,8.10
2016,05,09,10,54,9.60
2016,05,09,10,55,9.60
2016,05,09,10,56,8.10
2016,05,09,10,57,8.10
2016,05,09,10,58,12.90
2016,05,09,10,59,11.30
2016,05,09,11,00,11.30
2016,05,09,11,01,9.60
2016,05,09,11,02,8.10
2016,05,09,11,03,11.30
2016,05,09,11,04,11.30
2016,05,09,11,05,9.60
2016,05,09,11,06,11.30
2016,05,09,11,07,11.30
2016,05,09,11,08,14.50
2016,05,09,11,09,11.30
2016,05,09,11,10,9.60
2016,05,09,11,11,11.30
2016,05,09,11,12,12.90
2016,05,09,11,13,9.60
2016,05,09,11,14,14.50
2016,05,09,11,15,11.30
2016,05,09,11,16,9.60
2016,05,09,11,17,9.60
2016,05,09,11,18,9.60
2016,05,09,11,19,8.10
2016,05,09,11,20,8.10
2016,05,09,11,21,8.10
2016,05,09,11,22,11.30
2016,05,09,11,23,9.60
2016,05,09,11,24,9.60
2016,05,09,11,25,9.60
2016,05,09,11,26,9.60
2016,05,09,11,27,11.30
2016,05,09,11,28,11.30
2016,05,09,11,29,11.30
2016,05,09,11,30,11.30
2016,05,09,11,31,11.30
2016,05,09,11,32,9.60
2016,05,09,11,33,12.90
2016,05,09,11,34,11.30
2016,05,09,11,35,11.30
2016,05,09,11,36,8.10
2016,05,09,11,37,11.30
2016,05,09,11,38,12.90
2016,05,09,11,39,12.90
2016,05,09,11,40,9.60
2016,05,09,11,41,9.60
2016,05,09,11,42,11.30
2016,05,09,11,43,11.30
2016,05,09,11,44,11.30
2016,05,09,11,45,11.30
2016,05,09,11,46,11.30
2016,05,09,11,47,11.30
2016,05,09,11,48,12.90
2016,05,09,11,49,16.10
2016,05,09,11,50,11.30
2016,05,09,11,51,14.50
2016,05,09,11,52,12.90
2016,05,09,11,53,11.30
2016,05,09,11,54,11.30
2016,05,09,11,55,11.30
2016,05,09,11,56,9.60
2016,05,09,11,57,11.30
2016,05,09,11,58,11.30
2016,05,09,11,59,11.30
2016,05,09,12,00,11.30
2016,05,09,12,01,12.90
2016,05,09,12,02,16.10
2016,05,09,12,03,12.90
2016,05,09,12,04,12.90
2016,05,09,12,05,12.90
2016,05,09,12,06,12.90
2016,05,09,12,07,14.50
2016,05,09,12,08,14.50
2016,05,09,12,09,12.90
2016,05,09,12,10,11.30
2016,05,09,12,11,11.30
2016,05,09,12,12,12.90
2016,05,09,12,13,11.30
2016,05,09,12,14,11.30
2016,05,09,12,15,11.30
2016,05,09,12,16,9.60
2016,05,09,12,17,14.50
2016,05,09,12,18,12.90
2016,05,09,12,19,11.30
2016,05,09,12,20,11.30
2016,05,09,12,21,11.30
2016,05,09,12,22,11.30
2016,05,09,12,23,11.30
2016,05,09,12,24,11.30
2016,05,09,12,25,6.40
2016,05,09,12,26,9.60
2016,05,09,12,27,9.60
2016,05,09,12,28,11.30
2016,05,09,12,29,12.90
2016,05,09,12,30,11.30
2016,05,09,12,31,11.30
2016,05,09,12,32,11.30
2016,05,09,12,33,9.60
2016,05,09,12,34,9.60
2016,05,09,12,35,9.60
2016,05,09,12,36,12.90
2016,05,09,12,37,11.30
2016,05,09,12,38,12.90
2016,05,09,12,39,14.50
2016,05,09,12,40,11.30
2016,05,09,12,41,8.10
2016,05,09,12,42,11.30
2016,05,09,12,43,9.60
2016,05,09,12,44,9.60
2016,05,09,12,45,11.30
2016,05,09,12,46,14.50
2016,05,09,12,47,11.30
2016,05,09,12,48,11.30
2016,05,09,12,49,9.60
2016,05,09,12,50,8.10
2016,05,09,12,51,9.60
2016,05,09,12,52,6.40
2016,05,09,12,53,8.10
2016,05,09,12,54,9.60
2016,05,09,12,55,11.30
2016,05,09,12,56,9.60
2016,05,09,12,57,6.40
2016,05,09,12,58,9.60
2016,05,09,12,59,8.10
2016,05,09,13,00,9.60
2016,05,09,13,01,11.30
2016,05,09,13,02,14.50
2016,05,09,13,03,12.90
2016,05,09,13,04,11.30
2016,05,09,13,05,12.90
2016,05,09,13,06,11.30
2016,05,09,13,07,9.60
2016,05,09,13,08,8.10
2016,05,09,13,09,11.30
2016,05,09,13,10,8.10
2016,05,09,13,11,9.60
2016,05,09,13,12,11.30
2016,05,09,13,13,11.30
2016,05,09,13,14,8.10
2016,05,09,13,15,9.60
2016,05,09,13,16,11.30
2016,05,09,13,17,11.30
2016,05,09,13,18,14.50
2016,05,09,13,19,11.30
2016,05,09,13,20,11.30
2016,05,09,13,21,12.90
2016,05,09,13,22,8.10
2016,05,09,13,23,12.90
2016,05,09,13,24,9.60
2016,05,09,13,25,11.30
2016,05,09,13,26,11.30
2016,05,09,13,27,14.50
2016,05,09,13,28,8.10
2016,05,09,13,29,12.90
2016,05,09,13,30,12.90
2016,05,09,13,31,8.10
2016,05,09,13,32,9.60
2016,05,09,13,33,11.30
2016,05,09,13,34,9.60
2016,05,09,13,35,9.60
2016,05,09,13,36,9.60
2016,05,09,13,37,8.10
2016,05,09,13,38,9.60
2016,05,09,13,39,9.60
2016,05,09,13,40,8.10
2016,05,09,13,41,12.90
2016,05,09,13,42,9.60
2016,05,09,13,43,9.60
2016,05,09,13,44,11.30
2016,05,09,13,45,9.60
2016,05,09,13,46,11.30
2016,05,09,13,47,8.10
2016,05,09,13,48,9.60
2016,05,09,13,49,8.10
2016,05,09,13,50,12.90
2016,05,09,13,51,9.60
2016,05,09,13,52,12.90
2016,05,09,13,53,9.60
2016,05,09,13,54,11.30
2016,05,09,13,55,8.10
2016,05,09,13,56,9.60
2016,05,09,13,57,9.60
2016,05,09,13,58,11.30
2016,05,09,13,59,12.90
2016,05,09,14,00,12.90
2016,05,09,14,01,14.50
2016,05,09,14,02,9.60
2016,05,09,14,03,11.30
2016,05,09,14,04,11.30
2016,05,09,14,05,12.90
2016,05,09,14,06,8.10
2016,05,09,14,07,11.30
2016,05,09,14,08,9.60
2016,05,09,14,09,8.10
2016,05,09,14,10,11.30
2016,05,09,14,11,11.30
2016,05,09,14,12,9.60
2016,05,09,14,13,8.10
2016,05,09,14,14,9.60
2016,05,09,14,15,12.90
2016,05,09,14,16,9.60
2016,05,09,14,17,9.60
2016,05,09,14,18,11.30
2016,05,09,14,19,9.60
2016,05,09,14,20,11.30
2016,05,09,14,21,16.10
2016,05,09,14,22,11.30
2016,05,09,14,23,12.90
2016,05,09,14,24,11.30
2016,05,09,14,25,6.40
2016,05,09,14,26,14.50
2016,05,09,14,27,11.30
2016,05,09,14,28,12.90
2016,05,09,14,29,9.60
2016,05,09,14,30,11.30
2016,05,09,14,31,9.60
2016,05,09,14,32,9.60
2016,05,09,14,33,11.30
2016,05,09,14,34,11.30
2016,05,09,14,35,11.30
2016,05,09,14,36,9.60
2016,05,09,14,37,9.60
2016,05,09,14,38,14.50
2016,05,09,14,39,9.60
2016,05,09,14,40,9.60
2016,05,09,14,41,9.60
2016,05,09,14,42,9.60
2016,05,09,14,43,9.60
2016,05,09,14,44,8.10
2016,05,09,14,45,6.40
2016,05,09,14,46,8.10
2016,05,09,14,47,9.60
2016,05,09,14,48,9.60
2016,05,09,14,49,9.60
2016,05,09,14,50,12.90
2016,05,09,14,51,12.90
2016,05,09,14,52,12.90
2016,05,09,14,53,12.90
2016,05,09,14,54,11.30
2016,05,09,14,55,11.30
2016,05,09,14,56,11.30
2016,05,09,14,57,8.10
2016,05,09,14,58,12.90
2016,05,09,14,59,9.60
2016,05,09,15,00,11.30
2016,05,09,15,01,14.50
2016,05,09,15,02,12.90
2016,05,09,15,03,14.50
2016,05,09,15,04,11.30
2016,05,09,15,05,11.30
2016,05,09,15,06,14.50
2016,05,09,15,07,14.50
2016,05,09,15,08,12.90
2016,05,09,15,09,16.10
2016,05,09,15,10,14.50
2016,05,09,15,11,16.10
2016,05,09,15,12,14.50
2016,05,09,15,13,14.50
2016,05,09,15,14,14.50
2016,05,09,15,15,12.90
2016,05,09,15,16,14.50
2016,05,09,15,17,19.30
2016,05,09,15,18,14.50
2016,05,09,15,19,14.50
2016,05,09,15,20,14.50
2016,05,09,15,21,12.90
2016,05,09,15,22,11.30
2016,05,09,15,23,12.90
2016,05,09,15,24,9.60
2016,05,09,15,25,9.60
2016,05,09,15,26,8.10
2016,05,09,15,27,11.30
2016,05,09,15,28,9.60
2016,05,09,15,29,12.90
2016,05,09,15,30,12.90
2016,05,09,15,31,12.90
2016,05,09,15,32,14.50
2016,05,09,15,33,14.50
2016,05,09,15,34,12.90
2016,05,09,15,35,12.90
2016,05,09,15,36,9.60
2016,05,09,15,37,12.90
2016,05,09,15,38,12.90
2016,05,09,15,39,14.50
2016,05,09,15,40,16.10
2016,05,09,15,41,16.10
2016,05,09,15,42,14.50
2016,05,09,15,43,11.30
2016,05,09,15,44,11.30
2016,05,09,15,45,11.30
2016,05,09,15,46,12.90
2016,05,09,15,47,11.30
2016,05,09,15,48,14.50
2016,05,09,15,49,14.50
2016,05,09,15,50,14.50
2016,05,09,15,51,14.50
2016,05,09,15,52,12.90
2016,05,09,15,53,12.90
2016,05,09,15,54,14.50
2016,05,09,15,55,12.90
2016,05,09,15,56,11.30
2016,05,09,15,57,12.90
2016,05,09,15,58,12.90
2016,05,09,15,59,11.30
2016,05,09,16,00,12.90
2016,05,09,16,01,11.30
2016,05,09,16,02,12.90
2016,05,09,16,03,14.50
2016,05,09,16,04,12.90
2016,05,09,16,05,12.90
2016,05,09,16,06,12.90
2016,05,09,16,07,12.90
2016,05,09,16,08,12.90
2016,05,09,16,09,12.90
2016,05,09,16,10,12.90
2016,05,09,16,11,12.90
2016,05,09,16,12,12.90
2016,05,09,16,13,11.30
2016,05,09,16,14,11.30
2016,05,09,16,15,12.90
2016,05,09,16,16,11.30
2016,05,09,16,17,12.90
2016,05,09,16,18,14.50
2016,05,09,16,19,12.90
2016,05,09,16,20,16.10
2016,05,09,16,21,16.10
2016,05,09,16,22,11.30
2016,05,09,16,23,11.30
2016,05,09,16,24,12.90
2016,05,09,16,25,14.50
2016,05,09,16,26,12.90
2016,05,09,16,27,16.10
2016,05,09,16,28,14.50
2016,05,09,16,29,12.90
2016,05,09,16,30,14.50
2016,05,09,16,31,12.90
2016,05,09,16,32,16.10
2016,05,09,16,33,11.30
2016,05,09,16,34,14.50
2016,05,09,16,35,14.50
2016,05,09,16,36,12.90
2016,05,09,16,37,16.10
2016,05,09,16,38,12.90
2016,05,09,16,39,14.50
2016,05,09,16,40,12.90
2016,05,09,16,41,12.90
2016,05,09,16,42,12.90
2016,05,09,16,43,12.90
2016,05,09,16,44,14.50
2016,05,09,16,45,12.90
2016,05,09,16,46,12.90
2016,05,09,16,47,11.30
2016,05,09,16,48,11.30
2016,05,09,16,49,16.10
2016,05,09,16,50,12.90
2016,05,09,16,51,14.50
2016,05,09,16,52,12.90
2016,05,09,16,53,14.50
2016,05,09,16,54,12.90
2016,05,09,16,55,14.50
2016,05,09,16,56,12.90
2016,05,09,16,57,14.50
2016,05,09,16,58,14.50
2016,05,09,16,59,16.10
2016,05,09,17,00,16.10
2016,05,09,17,01,12.90
2016,05,09,17,02,14.50
2016,05,09,17,03,12.90
2016,05,09,17,04,16.10
2016,05,09,17,05,14.50
2016,05,09,17,06,14.50
2016,05,09,17,07,14.50
2016,05,09,17,08,14.50
2016,05,09,17,09,12.90
2016,05,09,17,10,11.30
2016,05,09,17,11,14.50
2016,05,09,17,12,12.90
2016,05,09,17,13,16.10
2016,05,09,17,14,11.30
2016,05,09,17,15,11.30
2016,05,09,17,16,8.10
2016,05,09,17,17,14.50
2016,05,09,17,18,6.40
2016,05,09,17,19,9.60
2016,05,09,17,20,6.40
2016,05,09,17,21,11.30
2016,05,09,17,22,6.40
2016,05,09,17,23,9.60
2016,05,09,17,24,8.10
2016,05,09,17,25,9.60
2016,05,09,17,26,12.90
2016,05,09,17,27,11.30
2016,05,09,17,28,12.90
2016,05,09,17,29,11.30
2016,05,09,17,30,8.10
2016,05,09,17,31,4.80
2016,05,09,17,32,8.10
2016,05,09,17,33,9.60
2016,05,09,17,34,6.40
2016,05,09,17,35,11.30
2016,05,09,17,36,8.10
2016,05,09,17,37,8.10
2016,05,09,17,38,4.80
2016,05,09,17,39,8.10
2016,05,09,17,40,9.60
2016,05,09,17,41,11.30
2016,05,09,17,42,8.10
2016,05,09,17,43,9.60
2016,05,09,17,44,9.60
2016,05,09,17,45,11.30
2016,05,09,17,46,9.60
2016,05,09,17,47,11.30
2016,05,09,17,48,9.60
2016,05,09,17,49,9.60
2016,05,09,17,50,11.30
2016,05,09,17,51,12.90
2016,05,09,17,52,12.90
2016,05,09,17,53,11.30
2016,05,09,17,54,9.60
2016,05,09,17,55,11.30
2016,05,09,17,56,9.60
2016,05,09,17,57,9.60
2016,05,09,17,58,9.60
2016,05,09,17,59,9.60
2016,05,09,18,00,11.30
2016,05,09,18,01,9.60
2016,05,09,18,02,11.30
2016,05,09,18,03,12.90
2016,05,09,18,04,11.30
2016,05,09,18,05,8.10
2016,05,09,18,06,6.40
2016,05,09,18,07,3.20
2016,05,09,18,08,6.40
2016,05,09,18,09,6.40
2016,05,09,18,10,6.40
2016,05,09,18,11,9.60
2016,05,09,18,12,8.10
2016,05,09,18,13,9.60
2016,05,09,18,14,6.40
2016,05,09,18,15,8.10
2016,05,09,18,16,9.60
2016,05,09,18,17,8.10
2016,05,09,18,18,9.60
2016,05,09,18,19,11.30
2016,05,09,18,20,9.60
2016,05,09,18,21,9.60
2016,05,09,18,22,11.30
2016,05,09,18,23,9.60
2016,05,09,18,24,12.90
2016,05,09,18,25,11.30
2016,05,09,18,26,6.40
2016,05,09,18,27,11.30
2016,05,09,18,28,8.10
2016,05,09,18,29,8.10
2016,05,09,18,30,6.40
2016,05,09,18,31,4.80
2016,05,09,18,32,8.10
2016,05,09,18,33,8.10
2016,05,09,18,34,11.30
2016,05,09,18,35,9.60
2016,05,09,18,36,9.60
2016,05,09,18,37,8.10
2016,05,09,18,38,8.10
2016,05,09,18,39,8.10
2016,05,09,18,40,11.30
2016,05,09,18,41,9.60
2016,05,09,18,42,9.60
2016,05,09,18,43,9.60
2016,05,09,18,44,8.10
2016,05,09,18,45,8.10
2016,05,09,18,46,4.80
2016,05,09,18,47,11.30
2016,05,09,18,48,9.60
2016,05,09,18,49,8.10
2016,05,09,18,50,6.40
2016,05,09,18,51,11.30
2016,05,09,18,52,9.60
2016,05,09,18,53,11.30
2016,05,09,18,54,9.60
2016,05,09,18,55,12.90
2016,05,09,18,56,9.60
2016,05,09,18,57,11.30
2016,05,09,18,58,8.10
2016,05,09,18,59,8.10
2016,05,09,19,00,11.30
2016,05,09,19,01,11.30
2016,05,09,19,02,12.90
2016,05,09,19,03,9.60
2016,05,09,19,04,9.60
2016,05,09,19,05,9.60
2016,05,09,19,06,8.10
2016,05,09,19,07,8.10
2016,05,09,19,08,6.40
2016,05,09,19,09,4.80
2016,05,09,19,10,8.10
2016,05,09,19,11,9.60
2016,05,09,19,12,8.10
2016,05,09,19,13,9.60
2016,05,09,19,14,9.60
2016,05,09,19,15,9.60
2016,05,09,19,16,8.10
2016,05,09,19,17,6.40
2016,05,09,19,18,9.60
2016,05,09,19,19,11.30
2016,05,09,19,20,8.10
2016,05,09,19,21,8.10
2016,05,09,19,22,6.40
2016,05,09,19,23,4.80
2016,05,09,19,24,4.80
2016,05,09,19,25,4.80
2016,05,09,19,26,6.40
2016,05,09,19,27,8.10
2016,05,09,19,28,9.60
2016,05,09,19,29,8.10
2016,05,09,19,30,8.10
2016,05,09,19,31,6.40
2016,05,09,19,32,6.40
2016,05,09,19,33,8.10
2016,05,09,19,34,8.10
2016,05,09,19,35,8.10
2016,05,09,19,36,6.40
2016,05,09,19,37,8.10
2016,05,09,19,38,9.60
2016,05,09,19,39,6.40
2016,05,09,19,40,8.10
2016,05,09,19,41,6.40
2016,05,09,19,42,8.10
2016,05,09,19,43,8.10
2016,05,09,19,44,8.10
2016,05,09,19,45,8.10
2016,05,09,19,46,6.40
2016,05,09,19,47,6.40
2016,05,09,19,48,6.40
2016,05,09,19,49,6.40
2016,05,09,19,50,4.80
2016,05,09,19,51,4.80
2016,05,09,19,52,4.80
2016,05,09,19,53,6.40
2016,05,09,19,54,6.40
2016,05,09,19,55,6.40
2016,05,09,19,56,4.80
2016,05,09,19,57,8.10
2016,05,09,19,58,8.10
2016,05,09,19,59,8.10
2016,05,09,20,00,11.30
2016,05,09,20,01,9.60
2016,05,09,20,02,8.10
2016,05,09,20,03,6.40
2016,05,09,20,04,6.40
2016,05,09,20,05,6.40
2016,05,09,20,06,6.40
2016,05,09,20,07,8.10
2016,05,09,20,08,4.80
2016,05,09,20,09,6.40
2016,05,09,20,10,4.80
2016,05,09,20,11,8.10
2016,05,09,20,12,9.60
2016,05,09,20,13,4.80
2016,05,09,20,14,6.40
2016,05,09,20,15,4.80
2016,05,09,20,16,6.40
2016,05,09,20,17,4.80
2016,05,09,20,18,4.80
2016,05,09,20,19,4.80
2016,05,09,20,20,4.80
2016,05,09,20,21,6.40
2016,05,09,20,22,9.60
2016,05,09,20,23,4.80
2016,05,09,20,24,3.20
2016,05,09,20,25,6.40
2016,05,09,20,26,4.80
2016,05,09,20,27,6.40
2016,05,09,20,28,8.10
2016,05,09,20,29,4.80
2016,05,09,20,30,6.40
2016,05,09,20,31,6.40
2016,05,09,20,32,3.20
2016,05,09,20,33,8.10
2016,05,09,20,34,8.10
2016,05,09,20,35,6.40
2016,05,09,20,36,4.80
2016,05,09,20,37,6.40
2016,05,09,20,38,4.80
2016,05,09,20,39,9.60
2016,05,09,20,40,4.80
2016,05,09,20,41,6.40
2016,05,09,20,42,8.10
2016,05,09,20,43,8.10
2016,05,09,20,44,9.60
2016,05,09,20,45,8.10
2016,05,09,20,46,6.40
2016,05,09,20,47,8.10
2016,05,09,20,48,8.10
2016,05,09,20,49,8.10
2016,05,09,20,50,8.10
2016,05,09,20,51,8.10
2016,05,09,20,52,6.40
2016,05,09,20,53,6.40
2016,05,09,20,54,6.40
2016,05,09,20,55,9.60
2016,05,09,20,56,9.60
2016,05,09,20,57,4.80
2016,05,09,20,58,4.80
2016,05,09,20,59,4.80
2016,05,09,21,00,4.80
2016,05,09,21,01,6.40
2016,05,09,21,02,6.40
2016,05,09,21,03,6.40
2016,05,09,21,04,4.80
2016,05,09,21,05,8.10
2016,05,09,21,06,9.60
2016,05,09,21,07,6.40
2016,05,09,21,08,6.40
2016,05,09,21,09,8.10
2016,05,09,21,10,6.40
2016,05,09,21,11,9.60
2016,05,09,21,12,8.10
2016,05,09,21,13,8.10
2016,05,09,21,14,8.10
2016,05,09,21,15,6.40
2016,05,09,21,16,8.10
2016,05,09,21,17,9.60
2016,05,09,21,18,8.10
2016,05,09,21,19,9.60
2016,05,09,21,20,11.30
2016,05,09,21,21,9.60
2016,05,09,21,22,9.60
2016,05,09,21,23,9.60
2016,05,09,21,24,11.30
2016,05,09,21,25,8.10
2016,05,09,21,26,6.40
2016,05,09,21,27,6.40